Temp
-13 -13 -13 -12 -12 -12 -12 -12 -13 -13 -13 -15 -14 -14 -15 -15 -15 -15 -14 -15 -15 -16 -16 -16 -16 -16 -17 -17 -17 -18 -18 -18 -18 -18 -18 -18 -19 -19
-13 -13 -13 -12 -13 -12 -12 -12 -12 -13 -13 -14 -14 -15 -15 -15 -15 -15 -15 -15 -15 -16 -16 -16 -16 -17 -17 -17 -17 -18 -18 -18 -18 -17 -18 -18 -19 -19
-13 -13 -13 -13 -13 -12 -12 -12 -12 -13 -13 -14 -16 -15 -15 -15 -15 -15 -15 -16 -16 -16 -16 -16 -17 -17 -17 -17 -18 -18 -18 -18 -18 -18 -18 -18 -19 -20
-13 -14 -13 -12 -12 -12 -11 -11 -12 -13 -13 -14 -16 -16 -15 -15 -15 -15 -15 -15 -16 -16 -16 -17 -17 -17 -17 -18 -18 -18 -18 -18 -18 -18 -18 -19 -20 -20
-14 -13 -13 -12 -12 -11 -10 -11 -12 -13 -14 -15 -15 -15 -14 -15 -15 -15 -15 -15 -16 -16 -17 -17 -17 -17 -17 -18 -18 -18 -18 -18 -18 -18 -19 -19 -20 -21
-14 -14 -13 -13 -13 -12 -12 -12 -13 -14 -15 -15 -15 -15 -15 -15 -15 -16 -15 -15 -16 -16 -17 -17 -18 -17 -18 -18 -19 -18 -18 -18 -18 -18 -19 -19 -20 -21
-14 -14 -14 -13 -13 -12 -13 -13 -13 -14 -14 -15 -15 -16 -16 -16 -16 -16 -16 -16 -16 -17 -17 -18 -18 -18 -18 -18 -19 -18 -18 -19 -19 -19 -19 -19 -20 -21
-14 -14 -14 -14 -14 -13 -13 -13 -14 -15 -16 -17 -16 -16 -16 -16 -16 -16 -16 -16 -17 -17 -18 -18 -18 -18 -19 -19 -19 -18 -18 -19 -19 -19 -20 -20 -21 -21
-15 -14 -14 -14 -14 -14 -14 -14 -15 -16 -16 -16 -17 -16 -16 -16 -16 -16 -16 -17 -17 -17 -19 -19 -19 -19 -19 -19 -19 -18 -19 -19 -19 -20 -20 -20 -21 -21
-15 -15 -15 -15 -15 -15 -14 -14 -15 -15 -16 -16 -16 -16 -17 -17 -16 -16 -17 -18 -17 -17 -18 -19 -19 -19 -20 -19 -19 -19 -19 -19 -20 -20 -20 -20 -21 -21
-16 -16 -15 -15 -15 -15 -15 -15 -15 -15 -15 -16 -17 -16 -16 -16 -16 -17 -18 -18 -18 -18 -18 -19 -19 -19 -20 -20 -19 -19 -20 -20 -20 -21 -21 -20 -21 -21
-16 -16 -16 -16 -15 -15 -16 -16 -16 -16 -16 -17 -17 -16 -16 -16 -17 -17 -18 -18 -18 -18 -18 -19 -19 -19 -19 -20 -20 -20 -20 -20 -21 -21 -21 -21 -21 -21
-16 -16 -16 -16 -16 -16 -16 -16 -16 -16 -17 -17 -17 -17 -17 -17 -17 -18 -18 -18 -18 -18 -17 -18 -19 -19 -19 -18 -19 -20 -20 -20 -20 -21 -21 -21 -21 -22
-16 -16 -16 -16 -16 -16 -17 -17 -17 -17 -17 -17 -17 -17 -17 -18 -18 -18 -18 -18 -18 -18 -18 -18 -19 -19 -19 -19 -19 -19 -20 -21 -20 -20 -21 -21 -21 -22
-17 -17 -17 -17 -16 -17 -17 -17 -18 -18 -18 -18 -18 -18 -18 -19 -19 -19 -18 -18 -18 -18 -18 -18 -19 -19 -19 -19 -18 -19 -19 -20 -20 -20 -21 -22 -22 -22
-17 -17 -17 -17 -17 -17 -17 -17 -18 -18 -18 -18 -18 -18 -19 -19 -19 -19 -19 -19 -18 -18 -18 -19 -19 -19 -19 -19 -19 -19 -20 -20 -20 -21 -21 -22 -23 -23
-17 -17 -17 -17 -17 -17 -17 -17 -17 -18 -18 -18 -18 -19 -19 -19 -19 -19 -19 -19 -19 -19 -19 -19 -19 -19 -19 -19 -19 -19 -20 -20 -21 -21 -21 -22 -23 -23
-17 -17 -18 -18 -18 -18 -18 -18 -18 -18 -18 -18 -19 -19 -19 -19 -19 -19 -19 -19 -19 -19 -19 -19 -19 -19 -19 -20 -20 -20 -21 -20 -21 -21 -22 -22 -22 -22
-17 -17 -17 -18 -18 -18 -18 -18 -18 -18 -18 -19 -18 -19 -19 -19 -19 -19 -19 -19 -19 -19 -19 -19 -19 -19 -20 -20 -21 -20 -20 -20 -21 -21 -22 -22 -22 -22
-18 -17 -17 -17 -18 -18 -18 -18 -18 -18 -18 -18 -18 -18 -19 -19 -19 -20 -20 -20 -19 -19 -19 -19 -19 -20 -20 -20 -21 -21 -20 -20 -21 -21 -21 -22 -22 -23
-18 -18 -18 -18 -18 -18 -18 -18 -18 -18 -18 -19 -19 -19 -19 -20 -20 -20 -20 -20 -20 -20 -20 -20 -19 -20 -20 -20 -20 -21 -21 -21 -21 -21 -21 -21 -22 -23
-19 -19 -18 -18 -18 -18 -18 -18 -18 -18 -18 -19 -19 -19 -19 -20 -20 -20 -20 -21 -20 -20 -20 -20 -20 -20 -20 -20 -20 -20 -21 -22 -22 -22 -22 -23 -23 -23
-19 -19 -19 -19 -18 -18 -18 -18 -18 -18 -19 -19 -19 -19 -19 -20 -20 -20 -21 -21 -21 -21 -21 -20 -20 -20 -20 -20 -20 -21 -21 -21 -21 -22 -23 -23 -24 -24
Height
5804 5804 5802 5802 5799 5798 5796 5793 5790 5788 5784 5780 5777 5775 5772 5769 5765 5760 5755 5750 5744 5739 5733 5727 5722 5716 5709 5703 5696 5689 5682 5675 5667 5658 5649 5639 5630 5619
5794 5794 5793 5793 5792 5791 5789 5786 5782 5780 5775 5773 5768 5768 5765 5762 5758 5754 5748 5743 5738 5733 5726 5719 5713 5707 5701 5695 5689 5682 5674 5666 5658 5649 5639 5629 5618 5607
5784 5784 5783 5783 5783 5782 5780 5777 5773 5770 5766 5764 5763 5761 5759 5755 5751 5746 5741 5736 5729 5724 5717 5712 5705 5700 5693 5687 5680 5673 5665 5656 5648 5639 5629 5618 5607 5595
5776 5776 5776 5773 5773 5771 5770 5767 5763 5760 5757 5756 5756 5753 5751 5748 5743 5738 5732 5727 5721 5715 5709 5705 5699 5692 5686 5680 5672 5665 5657 5647 5638 5629 5618 5609 5596 5584
5767 5767 5766 5765 5764 5761 5760 5757 5754 5752 5752 5751 5750 5748 5745 5740 5735 5730 5724 5719 5711 5707 5701 5697 5692 5685 5679 5672 5664 5656 5647 5637 5629 5619 5608 5597 5585 5573
5757 5758 5757 5758 5754 5752 5751 5749 5746 5747 5747 5746 5742 5739 5735 5731 5727 5723 5716 5710 5704 5699 5693 5689 5683 5677 5671 5664 5657 5649 5639 5628 5619 5609 5599 5587 5576 5564
5748 5749 5750 5749 5747 5745 5745 5742 5740 5738 5737 5735 5733 5731 5727 5724 5720 5714 5708 5702 5696 5692 5686 5679 5675 5669 5663 5656 5648 5639 5630 5619 5609 5600 5589 5578 5567 5556
5741 5740 5741 5739 5739 5738 5737 5734 5731 5729 5728 5726 5724 5722 5719 5716 5712 5706 5699 5694 5688 5683 5676 5670 5665 5660 5655 5647 5639 5631 5621 5611 5600 5591 5580 5569 5558 5547
5733 5731 5732 5732 5731 5729 5727 5726 5725 5724 5722 5720 5717 5714 5711 5707 5703 5697 5691 5686 5680 5674 5667 5662 5657 5651 5646 5639 5631 5622 5612 5602 5592 5582 5571 5560 5549 5538
5724 5723 5723 5723 5723 5721 5720 5718 5718 5717 5715 5712 5710 5706 5703 5698 5693 5689 5683 5678 5671 5665 5660 5655 5649 5643 5636 5629 5621 5612 5603 5593 5584 5572 5562 5552 5541 5529
5714 5713 5714 5715 5714 5713 5712 5711 5710 5709 5707 5705 5702 5698 5693 5689 5685 5681 5675 5669 5664 5659 5653 5648 5641 5636 5628 5618 5610 5602 5594 5584 5575 5564 5553 5542 5530 5520
5704 5704 5706 5706 5707 5706 5704 5703 5702 5701 5698 5695 5692 5689 5685 5681 5677 5672 5667 5662 5656 5651 5644 5639 5634 5629 5623 5611 5602 5594 5585 5576 5567 5555 5543 5531 5520 5511
5694 5694 5697 5698 5698 5697 5696 5695 5693 5691 5688 5686 5684 5680 5676 5672 5669 5664 5659 5653 5648 5641 5635 5630 5625 5620 5615 5609 5597 5586 5579 5570 5560 5547 5534 5522 5510 5497
5684 5685 5687 5688 5687 5687 5686 5684 5682 5681 5679 5677 5673 5670 5666 5663 5660 5655 5650 5645 5638 5632 5626 5621 5616 5611 5605 5599 5591 5583 5572 5561 5552 5541 5528 5515 5503 5490
5675 5676 5675 5676 5676 5677 5676 5674 5672 5672 5669 5666 5662 5659 5657 5654 5651 5646 5641 5636 5630 5622 5616 5611 5607 5602 5596 5589 5583 5575 5567 5556 5544 5534 5521 5506 5495 5484
5663 5663 5664 5665 5666 5666 5665 5663 5662 5661 5658 5656 5652 5649 5647 5645 5641 5637 5632 5627 5621 5613 5608 5602 5599 5593 5586 5580 5573 5565 5556 5547 5538 5525 5516 5499 5486 5475
5651 5653 5653 5654 5656 5655 5653 5652 5650 5649 5647 5644 5642 5639 5636 5634 5630 5627 5622 5617 5612 5605 5600 5595 5591 5585 5579 5572 5564 5556 5548 5537 5527 5519 5509 5497 5480 5468
5638 5641 5642 5642 5642 5642 5641 5639 5638 5636 5633 5632 5630 5627 5624 5622 5619 5616 5613 5607 5603 5597 5593 5587 5582 5576 5569 5561 5555 5547 5540 5531 5521 5511 5499 5490 5478 5464
5623 5624 5625 5628 5628 5628 5626 5625 5624 5622 5620 5619 5617 5615 5612 5610 5607 5604 5600 5597 5592 5588 5583 5578 5573 5567 5561 5554 5547 5540 5533 5523 5515 5506 5494 5481 5469 5458
5605 5607 5608 5609 5611 5612 5611 5611 5610 5608 5607 5606 5604 5602 5599 5597 5594 5592 5588 5585 5581 5577 5573 5568 5564 5559 5553 5547 5540 5530 5524 5516 5508 5500 5491 5479 5465 5450
5587 5589 5591 5592 5593 5594 5594 5594 5593 5592 5592 5591 5590 5588 5585 5582 5581 5578 5575 5571 5568 5566 5562 5557 5553 5550 5545 5538 5532 5525 5514 5505 5497 5490 5482 5474 5463 5452
5568 5570 5572 5574 5575 5577 5577 5577 5576 5575 5574 5574 5573 5571 5569 5567 5567 5564 5561 5558 5556 5554 5551 5546 5543 5540 5535 5531 5525 5518 5509 5498 5488 5478 5468 5457 5447 5438
5550 5552 5555 5556 5557 5558 5559 5559 5559 5557 5556 5556 5555 5554 5552 5551 5550 5549 5547 5545 5545 5542 5539 5535 5533 5529 5526 5522 5517 5510 5503 5495 5487 5475 5463 5451 5435 5421
Wind_Speed
46 45 43 42 36 36 35 37 32 37 41 39 42 44 42 34 35 38 40 41 41 41 41 42 44 46 45 47 48 51 49 51 51 53 56 60 65 66
48 44 37 33 33 37 35 37 35 38 41 42 46 41 31 32 36 41 42 43 44 45 42 42 44 47 46 47 49 51 50 51 53 56 59 62 65 65
33 29 29 30 33 34 37 39 38 33 40 41 39 32 30 31 39 41 44 44 44 44 44 44 45 46 47 47 48 49 50 53 56 58 61 64 66 66
27 25 31 30 33 34 38 41 37 39 42 36 29 30 32 36 41 40 42 43 45 45 44 46 47 46 48 48 48 48 51 54 58 57 63 67 66 65
19 21 24 27 32 33 33 26 31 28 23 23 27 31 34 41 44 43 45 46 45 46 45 48 49 47 49 49 49 50 53 54 55 60 66 69 65 65
19 20 23 25 22 25 28 20 17 14 17 22 27 30 34 41 45 45 46 47 44 45 47 49 47 46 50 51 50 53 55 54 57 62 67 67 65 65
20 24 25 26 28 29 25 25 21 22 26 28 30 35 40 40 41 42 44 44 44 46 50 51 48 47 50 50 50 52 54 59 60 62 65 65 64 64
27 26 28 26 27 28 28 23 20 23 27 30 33 36 35 37 40 41 44 44 46 48 51 48 45 48 50 48 50 52 57 61 58 63 62 65 64 63
29 28 28 27 25 23 21 20 20 25 28 33 33 34 36 39 44 43 47 50 49 48 44 42 45 49 49 48 51 55 59 56 61 61 62 65 63 64
30 30 28 24 23 21 21 21 23 28 31 33 36 39 41 44 43 44 48 47 43 42 42 43 47 49 49 50 54 56 57 59 62 61 63 65 65 64
31 30 26 25 24 23 23 24 27 29 31 35 39 41 43 44 44 46 44 44 42 44 46 45 47 47 49 52 54 57 58 61 63 61 62 65 66 65
31 29 28 26 27 27 26 28 30 32 35 39 42 40 41 44 44 44 43 42 46 45 47 47 46 46 46 50 53 58 56 60 61 61 63 66 66 67
30 30 29 30 30 30 31 31 32 33 37 39 38 40 42 42 41 40 44 44 46 48 47 47 44 45 47 49 55 55 55 58 59 60 62 64 67 68
31 33 34 34 34 34 33 32 33 36 38 39 40 40 39 38 38 42 46 47 49 51 51 48 44 45 48 51 51 52 55 57 58 60 61 64 66 65
36 37 37 37 36 37 37 34 37 40 39 39 39 40 39 40 43 47 48 49 47 52 53 51 48 46 47 50 48 53 54 56 58 61 62 65 64 62
40 42 41 40 40 40 40 42 42 42 42 41 39 40 41 42 45 48 50 54 52 53 52 53 49 47 46 48 51 54 53 56 59 61 61 63 62 63
47 46 46 47 46 45 44 46 48 47 46 45 45 42 44 47 49 49 52 53 54 52 52 53 49 48 48 49 52 52 53 56 59 59 57 57 60 64
51 51 51 50 49 50 50 51 50 50 50 50 50 48 50 51 51 51 51 54 55 54 55 56 50 50 48 48 49 51 52 55 58 56 58 57 58 64
56 55 55 53 52 53 54 55 55 57 56 56 58 57 55 54 54 53 52 54 55 55 56 59 51 48 45 43 46 50 53 55 54 53 56 57 60 64
60 60 60 59 58 58 58 59 60 61 61 61 61 60 59 57 56 55 55 55 55 55 56 57 54 45 44 44 45 48 54 54 51 52 53 56 60 65
64 64 64 64 63 62 62 63 64 64 63 61 61 62 62 60 59 59 57 56 55 54 54 55 53 46 44 44 45 48 51 52 52 54 53 55 58 62
64 64 65 67 67 66 67 67 67 67 67 64 62 63 63 61 60 60 59 57 54 54 54 55 50 44 43 42 44 47 48 47 51 54 57 61 64 66
68 67 68 69 70 70 70 70 69 69 68 66 64 65 65 63 58 59 58 57 53 56 57 56 54 42 39 39 43 44 45 43 47 50 55 59 66 69
Wind_Direction
268 272 278 289 281 288 294 296 298 301 296 287 284 289 295 298 300 301 303 306 308 310 315 317 314 316 318 318 318 319 319 320 320 322 323 323 324 325
270 278 276 277 280 284 284 292 296 297 296 288 285 288 288 293 298 303 306 311 310 312 311 312 314 316 316 316 317 319 318 321 323 323 323 325 326 325
269 271 271 276 281 283 282 285 287 294 292 287 280 284 291 296 300 303 305 308 308 309 309 310 312 315 314 314 317 318 320 321 324 323 326 325 326 327
280 287 277 277 281 288 284 282 280 290 289 298 277 285 290 295 298 302 304 308 306 308 308 311 310 312 313 314 316 317 320 323 323 323 326 328 327 328
284 293 292 299 289 296 303 294 284 285 288 284 291 296 295 292 297 302 305 307 305 308 307 308 309 313 314 312 314 318 321 323 321 324 327 330 329 328
284 286 296 297 296 301 301 298 312 292 285 284 279 281 284 291 297 304 306 307 305 307 306 304 307 313 312 311 312 316 319 320 322 325 328 330 330 327
280 289 293 295 296 297 287 283 289 277 272 272 278 287 293 300 306 308 310 312 308 308 306 303 304 311 312 312 314 316 317 320 323 326 330 331 328 327
285 285 292 293 294 292 288 276 270 267 272 281 286 290 294 301 302 306 309 311 310 305 309 307 307 310 311 312 314 315 317 321 323 327 330 330 327 327
275 280 284 280 281 282 277 273 273 278 282 284 288 289 293 297 301 304 304 305 306 303 305 303 307 309 311 312 315 317 322 323 326 327 330 330 328 327
267 275 274 274 276 277 285 288 287 285 285 285 284 288 294 301 302 302 302 307 312 308 302 302 306 309 311 312 315 318 321 323 325 327 329 330 329 328
268 269 265 267 269 274 278 281 281 282 285 286 287 291 296 296 297 300 301 307 309 306 301 300 304 310 313 313 316 319 320 322 325 327 328 329 329 329
264 264 267 269 273 277 278 276 276 277 282 284 285 289 291 292 296 300 307 305 305 305 301 298 303 309 313 314 318 321 320 323 326 327 328 330 330 331
261 263 264 268 272 274 278 278 278 279 277 278 285 288 290 293 301 306 306 305 306 307 305 297 300 307 311 315 321 322 322 324 326 329 329 331 332 332
263 265 268 269 273 277 279 279 277 276 279 284 286 288 290 296 301 301 305 309 304 310 307 300 299 306 311 316 319 321 323 325 328 330 330 332 333 332
263 268 271 275 279 284 281 280 282 283 284 285 285 288 291 294 295 300 304 307 310 310 308 300 299 305 310 316 317 319 321 324 328 331 332 332 334 333
269 271 275 277 280 279 276 282 285 283 284 284 286 290 292 295 298 300 305 305 309 312 311 303 300 305 309 315 317 319 323 324 329 333 334 334 333 333
270 271 273 276 275 274 276 277 277 278 280 283 286 290 291 293 295 299 302 305 307 310 309 308 305 306 310 313 315 318 322 326 329 332 335 336 333 335
269 270 272 275 276 274 275 276 278 278 281 285 285 285 290 293 295 296 297 300 304 306 312 304 302 304 310 313 315 318 322 326 330 333 334 338 337 338
269 271 273 273 272 273 275 277 277 277 278 278 282 285 288 290 292 294 296 297 299 303 304 310 298 303 307 310 313 316 321 325 330 333 336 337 340 343
269 271 272 273 273 273 274 275 276 276 277 278 279 282 285 287 290 293 294 296 297 297 301 301 299 298 302 307 312 317 321 326 331 333 337 340 342 342
269 269 271 272 273 274 275 275 275 275 275 277 280 283 284 286 289 291 293 293 292 294 296 302 300 293 301 305 310 317 321 328 331 334 338 341 343 344
270 273 274 274 274 274 274 275 275 275 277 279 280 281 283 285 287 289 289 290 291 291 294 297 297 289 298 302 309 316 322 329 331 336 337 339 344 346
271 275 282 279 275 274 273 274 275 276 277 278 279 281 282 283 283 285 286 285 288 288 292 294 298 285 293 300 307 314 322 328 333 338 336 341 343 346